Theta_e
318 319 316 315 317 317 317 317 316 316 316 316 316 316 317 316 314 312 310 310 310 308 308 307 307 307 307 307 307 307 307 308 309 311 312 310 310 310 312 312 312 315 313 310 310 311 311 311 312 311 316 317 315 315 313 317 324 329 337 331 322 323 323 322 322 318 320 322 316 313 314 316 316 313 311 310 315 317 315 319 318 320 324 323 323 320 321 331
319 317 315 316 317 316 316 317 316 316 316 317 316 316 316 315 312 310 309 309 309 307 308 307 307 307 307 307 307 307 307 308 310 311 311 309 311 311 310 312 314 314 312 310 310 310 312 313 311 313 320 318 313 316 316 313 321 335 334 325 330 334 324 321 323 317 316 317 316 315 313 314 315 314 312 312 316 316 315 316 317 322 323 324 324 321 324 331
318 315 315 317 316 316 317 316 316 316 316 316 315 315 315 314 310 308 308 308 308 307 308 306 307 306 307 307 307 309 309 309 310 310 309 308 311 312 312 315 316 314 311 311 311 310 312 313 309 313 320 318 315 316 319 316 318 328 327 324 334 337 322 317 320 318 315 315 317 315 311 313 313 313 312 314 317 314 318 317 316 321 323 334 329 322 328 331
317 315 315 317 316 315 316 315 316 316 315 315 315 316 315 312 309 308 307 307 307 307 307 307 306 306 307 307 309 311 309 308 310 310 309 308 310 312 315 318 315 312 311 311 312 313 312 311 309 315 318 317 316 316 317 317 316 318 323 327 328 325 319 317 318 318 317 314 317 316 312 312 312 312 312 316 317 316 320 318 318 320 327 342 330 323 329 329
316 315 314 315 316 315 315 315 316 316 315 315 315 315 314 311 309 308 307 307 306 307 307 307 306 306 307 307 309 311 309 308 310 312 312 310 309 313 317 316 314 312 311 312 314 313 311 309 311 317 319 314 315 317 315 313 314 314 316 321 321 317 315 315 316 316 314 312 315 316 314 313 311 312 315 317 317 320 319 316 319 316 328 345 332 325 328 327
316 315 314 314 315 315 314 315 316 315 315 314 314 315 313 310 309 307 306 306 306 306 306 307 306 306 307 307 310 310 309 308 310 314 315 313 311 314 316 313 313 312 311 313 313 312 313 311 311 317 319 315 314 314 313 310 312 317 315 315 318 316 314 315 314 313 312 313 316 316 314 312 312 313 314 315 317 319 314 313 314 310 320 332 327 325 328 328
316 316 315 314 314 314 314 315 315 314 314 314 314 314 312 310 308 307 306 306 305 305 305 306 306 306 307 308 311 312 311 310 311 315 315 314 313 316 316 312 313 313 311 312 312 313 315 314 313 318 319 315 313 312 312 312 313 320 318 314 315 314 313 314 313 313 311 315 316 313 312 312 316 314 310 313 317 316 309 306 305 308 318 324 324 327 327 328
316 316 315 315 313 313 314 315 314 314 314 314 314 313 313 310 308 307 306 306 305 305 305 305 305 306 307 309 312 313 312 312 313 314 314 314 315 316 316 313 313 313 312 311 312 315 314 313 313 314 317 314 312 313 312 312 315 319 317 315 315 313 314 314 314 316 314 314 313 311 313 314 314 311 311 316 319 315 309 311 314 316 323 326 327 329 325 326
316 316 315 315 314 313 314 314 314 314 314 314 314 313 314 312 309 307 306 306 306 305 304 305 305 305 308 310 311 311 311 313 313 313 313 313 315 316 316 313 312 313 313 312 312 312 312 314 314 312 314 312 312 314 313 313 315 317 317 317 316 314 314 314 314 318 317 314 312 313 315 314 311 310 315 319 317 313 312 325 335 331 332 331 329 328 325 325
316 316 315 315 314 313 313 313 313 314 314 314 313 313 314 313 311 308 307 306 306 305 305 305 304 305 310 311 309 308 311 315 314 313 313 313 314 315 315 313 313 313 312 313 313 311 312 313 313 312 314 313 312 312 312 312 313 316 319 318 318 316 315 316 315 316 316 314 314 316 316 314 312 312 317 316 312 311 315 331 336 338 340 332 327 326 323 323
316 316 315 315 313 313 313 313 313 313 314 314 313 313 314 313 312 309 308 307 306 306 305 305 305 307 312 311 307 307 313 316 314 313 312 312 314 314 314 313 313 314 313 314 313 311 313 310 309 311 313 313 313 313 312 311 312 316 318 317 317 318 315 315 316 315 316 313 313 317 315 314 313 315 319 314 310 312 318 330 333 340 341 328 327 326 322 322
316 316 315 314 313 313 312 312 313 313 313 313 313 313 314 314 312 310 308 307 307 306 305 306 305 308 312 310 308 309 314 317 314 313 313 313 314 313 314 314 313 314 314 314 314 313 313 310 310 314 313 312 313 314 313 313 314 315 316 314 317 321 316 313 315 315 316 313 313 316 313 315 315 316 319 314 312 313 316 324 328 333 331 324 326 326 323 322
316 315 315 314 312 312 312 312 312 312 313 313 312 312 313 313 312 311 309 307 307 306 306 305 306 310 311 309 310 310 314 317 314 313 313 313 314 314 315 315 314 315 315 315 315 314 314 312 313 315 313 315 316 311 313 315 314 315 315 317 319 320 316 313 314 315 314 313 314 313 311 318 320 317 316 312 313 315 315 319 321 325 323 320 321 323 324 321
316 315 315 313 313 313 312 311 311 311 312 312 312 312 313 312 311 311 309 308 307 306 307 306 308 311 309 309 311 311 314 316 314 313 313 314 315 315 315 315 315 316 315 315 314 315 315 312 312 313 312 315 314 310 317 320 318 316 312 320 323 315 315 317 315 316 313 312 313 311 312 320 322 319 314 310 314 315 316 321 318 318 318 316 318 319 321 318
316 315 314 314 313 312 312 312 311 311 312 313 312 312 312 311 311 310 309 309 308 308 309 308 311 312 309 310 311 312 316 315 314 313 313 315 315 315 314 314 314 314 314 314 315 314 314 312 314 316 312 312 313 314 322 321 324 322 311 320 322 312 319 323 315 317 315 312 313 311 314 320 319 319 312 309 316 316 317 324 320 318 317 315 315 315 317 315
316 315 314 314 313 313 313 312 312 312 312 312 311 311 311 310 310 310 310 309 310 311 310 312 314 310 307 310 312 314 315 314 313 313 314 315 314 314 313 313 313 313 314 313 314 313 312 315 315 313 313 313 315 320 322 319 325 325 315 319 321 315 319 319 314 316 316 314 315 312 316 321 319 319 315 309 315 317 317 324 323 322 321 317 315 312 312 312
316 315 315 314 313 313 313 312 312 312 312 311 311 310 309 309 309 309 310 311 312 312 311 315 314 308 306 309 312 315 314 313 313 313 315 314 314 314 312 314 313 311 313 312 313 313 312 316 313 312 317 316 316 321 320 316 320 321 318 320 320 318 317 316 316 314 313 315 316 314 315 320 320 320 319 312 311 314 317 322 322 321 320 319 317 314 312 311
315 315 315 314 313 313 312 312 312 311 311 310 309 309 310 310 309 311 313 312 312 310 310 312 310 308 308 308 313 315 312 313 314 314 315 315 314 313 313 314 312 311 315 315 314 314 315 317 317 318 320 315 315 318 317 318 319 319 318 317 316 316 314 317 320 314 312 315 316 317 316 319 321 318 318 313 309 313 316 317 317 316 316 315 314 315 314 312
315 315 315 314 314 313 312 312 312 311 311 309 310 311 311 311 311 313 313 311 309 306 308 311 308 310 311 310 313 314 312 313 314 314 314 315 313 313 313 313 314 316 317 317 315 315 320 321 318 319 318 315 316 316 318 323 322 319 320 322 322 323 318 319 320 313 312 315 317 319 318 319 320 317 318 315 310 312 315 314 314 314 314 313 312 313 312 313
316 315 315 314 313 313 313 312 312 311 309 310 312 311 310 312 313 314 314 313 311 307 310 312 310 312 312 312 314 313 312 313 313 314 314 314 314 314 314 312 317 320 318 321 318 314 319 321 318 319 318 318 317 315 318 321 319 317 320 323 324 323 320 317 316 313 312 315 318 320 319 319 318 316 316 313 311 312 314 316 316 315 314 313 313 313 312 312
316 315 315 314 314 313 313 312 312 311 310 311 312 310 312 313 312 313 314 314 310 305 310 311 309 312 312 312 313 311 312 313 312 314 314 314 314 314 315 315 317 318 318 322 320 313 316 319 319 320 318 316 316 316 318 318 318 319 320 320 319 318 319 315 313 315 313 314 318 320 321 320 318 318 315 313 313 315 317 318 317 316 314 313 313 313 313 311
315 315 315 314 314 313 312 312 311 310 310 311 310 311 314 311 308 310 310 311 307 304 310 310 308 314 313 311 312 311 313 315 313 314 314 314 314 313 317 318 318 318 317 318 318 316 317 319 320 318 315 314 314 316 320 321 323 324 320 319 319 319 319 315 313 315 314 314 319 323 322 319 318 319 316 314 315 315 316 316 316 315 315 314 313 313 312 311
316 315 314 314 313 313 312 311 311 310 310 311 310 310 312 311 310 309 307 310 307 306 312 312 312 319 317 313 313 312 313 315 314 315 313 314 315 315 317 318 317 318 317 317 319 319 320 321 319 314 314 315 314 315 319 321 322 323 321 321 320 319 318 317 315 315 314 313 317 322 320 317 317 318 318 316 313 313 315 315 314 313 314 313 312 312 312 311
316 315 314 314 313 312 312 311 311 310 309 311 310 310 312 313 311 308 309 310 308 308 311 311 313 322 320 313 313 314 314 313 314 313 312 315 316 314 316 318 318 318 316 317 318 319 321 316 311 311 313 317 317 314 316 319 317 318 325 330 326 323 321 318 315 317 316 313 315 317 315 321 327 327 328 322 313 313 315 314 316 315 312 311 312 312 311 310
316 315 314 313 312 312 310 310 310 309 310 310 310 310 312 314 310 309 311 310 307 308 307 308 313 318 317 312 313 314 313 313 314 313 311 314 316 314 315 315 316 317 316 317 316 318 318 310 308 313 314 318 319 316 319 322 317 316 324 331 331 330 326 320 318 320 321 316 312 311 313 329 338 332 329 326 319 318 315 313 318 317 310 311 315 315 313 313
316 315 314 313 312 311 310 310 310 309 310 309 310 310 311 313 310 309 313 312 310 310 307 308 311 312 313 313 315 315 314 314 312 312 312 312 313 313 314 313 313 316 317 316 315 316 315 310 312 318 316 318 318 316 318 320 320 317 318 321 326 331 328 324 320 317 319 314 310 311 315 322 327 322 322 324 324 325 319 317 324 320 311 313 316 317 318 320
316 314 314 312 311 310 309 310 309 309 311 310 309 309 310 313 311 308 312 311 310 311 309 308 308 310 313 313 314 314 315 316 312 311 313 312 310 311 315 315 313 315 316 315 316 316 314 313 315 317 318 319 317 317 317 317 321 320 316 318 326 329 328 328 325 322 322 315 314 321 321 315 318 316 317 320 322 324 321 320 324 320 315 316 317 316 318 319
315 314 313 312 310 311 309 309 309 309 310 309 308 309 312 313 310 308 313 310 308 310 309 307 308 310 313 310 313 315 314 315 314 313 311 310 310 312 318 319 316 318 315 314 317 315 314 318 318 317 319 319 320 322 317 317 322 320 313 316 323 325 330 333 333 331 321 312 318 327 315 312 323 321 317 316 316 319 321 319 319 317 317 319 316 314 313 311
315 314 312 311 310 310 309 309 309 309 309 309 309 311 313 312 308 309 312 308 308 309 307 308 309 312 314 311 312 315 314 315 316 314 311 310 310 310 315 317 317 318 313 315 321 317 314 316 315 316 318 319 320 319 315 319 324 317 310 315 319 322 327 329 332 328 317 313 326 327 314 311 321 324 320 314 313 319 321 320 319 318 319 319 317 317 317 316
314 313 312 310 310 309 310 309 309 309 309 310 311 312 312 311 309 309 308 307 310 309 307 308 309 313 316 312 312 314 315 316 316 315 314 314 313 311 311 311 315 319 317 321 324 318 314 311 312 315 315 316 316 314 313 318 319 313 316 321 320 323 328 330 331 324 314 321 329 322 315 312 313 323 324 314 314 319 318 321 323 322 323 320 320 324 326 327
314 313 311 310 310 310 310 310 309 308 309 311 313 311 310 312 313 310 307 310 313 310 308 309 309 314 316 313 314 314 317 318 315 315 315 314 314 314 312 311 315 321 321 322 321 318 316 314 315 315 313 314 317 317 312 311 313 317 324 325 318 322 326 329 332 323 317 327 324 315 314 312 311 323 328 319 318 317 314 319 322 321 324 323 325 329 328 329
313 312 311 310 310 310 310 311 309 309 310 313 313 309 308 311 312 310 308 309 311 311 311 310 309 314 316 313 314 315 318 319 315 315 318 317 315 314 314 315 319 319 318 319 320 319 320 319 317 314 313 314 321 323 314 312 318 320 322 323 320 323 320 323 330 323 321 324 315 312 315 312 312 317 319 319 319 315 311 313 318 320 322 324 327 329 329 331
313 311 311 310 310 310 311 311 309 311 313 312 310 310 314 313 309 310 311 309 310 311 312 312 311 313 315 314 314 315 316 316 315 315 317 318 316 314 315 318 321 321 320 321 321 318 320 323 318 316 316 314 317 321 318 317 320 317 317 321 322 323 318 320 324 316 317 319 312 311 315 315 317 314 313 316 313 313 315 313 315 318 318 321 321 321 325 331
312 311 311 311 310 309 312 312 310 312 313 310 307 311 315 313 309 310 311 310 313 313 313 314 313 313 314 314 314 315 315 314 314 315 315 316 316 315 316 314 315 323 325 321 320 318 318 321 319 318 318 315 315 318 321 322 318 316 318 316 318 326 325 322 323 319 321 321 314 310 314 322 323 313 313 317 313 313 316 315 314 314 315 315 314 318 328 334
311 311 311 310 310 310 312 312 311 312 311 308 307 310 311 310 311 311 309 311 316 316 314 313 313 313 314 314 313 314 315 315 313 315 316 316 316 315 315 312 313 322 324 317 317 317 316 316 318 317 314 315 317 317 318 320 318 317 315 313 315 324 326 318 314 318 319 317 317 314 317 326 322 313 314 313 312 313 316 317 318 318 318 316 318 326 333 336
311 310 310 310 310 310 312 313 312 312 310 308 309 311 309 310 314 314 310 313 317 314 312 313 314 315 313 312 314 313 314 316 315 315 316 315 315 315 314 313 314 316 316 316 318 318 316 315 315 316 314 314 316 316 316 318 318 316 314 318 320 318 323 319 309 310 311 311 317 316 318 321 314 312 316 313 313 316 319 321 320 321 323 322 324 330 334 335
311 310 310 310 310 311 313 314 313 311 310 308 309 311 309 308 313 316 314 315 315 312 312 313 313 315 313 312 315 314 314 317 315 315 316 314 316 316 314 314 314 312 313 316 319 318 320 318 314 316 317 313 310 313 317 316 315 318 320 322 316 311 319 321 313 318 317 314 319 316 315 318 313 313 319 316 314 317 321 324 321 322 325 323 321 324 330 331
311 311 311 311 311 311 313 314 312 311 310 309 310 314 313 309 310 318 318 312 312 313 315 314 312 314 313 312 315 314 314 316 315 316 316 314 316 316 314 314 313 312 311 313 313 314 319 319 314 313 317 315 313 315 317 314 311 317 321 317 316 317 320 317 314 321 319 315 323 321 313 312 313 316 319 315 316 321 321 320 320 321 323 322 318 317 325 328
311 312 312 312 311 312 313 313 311 312 312 310 310 313 316 315 314 317 317 312 312 315 314 316 316 313 312 312 314 313 313 314 315 315 315 313 315 315 313 314 314 312 311 311 312 311 315 317 314 312 314 315 317 317 318 318 313 313 313 310 317 325 323 318 315 318 317 314 319 322 319 316 316 318 320 314 316 323 323 320 323 323 318 315 314 316 326 330
311 313 313 312 312 313 313 313 312 313 313 311 311 310 314 317 315 315 315 314 316 314 313 319 317 313 313 313 312 313 313 314 314 315 314 312 313 313 312 313 313 313 311 311 313 313 313 312 312 314 313 315 320 319 318 320 316 315 314 312 317 318 317 319 315 315 319 319 319 320 319 322 324 319 319 316 315 321 324 323 327 324 313 310 314 318 325 328
310 313 312 311 313 314 313 314 314 314 313 312 314 313 313 315 315 315 315 314 315 314 315 320 317 314 316 314 312 313 314 315 314 314 314 312 312 313 312 312 314 312 311 310 313 315 313 311 316 319 317 318 322 317 314 318 317 316 316 315 317 316 316 318 315 313 315 315 319 319 314 320 327 320 319 320 316 316 316 316 322 325 314 310 314 317 321 325
311 312 311 311 313 313 314 315 313 313 314 313 313 313 313 314 315 316 314 314 316 315 316 319 318 317 316 312 312 314 314 315 314 314 316 313 312 313 311 312 314 312 312 312 312 315 317 318 323 324 320 319 317 311 310 315 316 316 316 316 316 315 317 319 317 317 314 309 313 317 315 316 318 316 318 318 313 311 309 310 317 323 317 312 315 318 318 321
311 311 310 311 312 312 314 315 312 313 314 311 310 311 312 315 316 314 314 315 317 316 316 320 318 315 315 314 314 314 313 314 314 314 316 314 312 315 315 313 313 312 312 313 311 312 315 317 319 320 321 321 317 313 312 313 313 315 317 317 316 316 318 321 321 319 317 314 313 315 317 315 314 318 318 315 315 317 315 314 318 322 323 322 324 324 322 323
309 308 309 310 310 311 313 314 313 313 312 310 312 312 311 314 315 315 316 317 318 317 318 320 316 314 317 318 314 313 313 313 314 313 315 315 311 313 315 313 312 313 313 313 313 311 312 315 317 317 319 320 318 318 318 316 315 318 319 316 316 318 317 316 316 314 315 319 318 317 318 316 318 323 319 316 322 324 321 318 319 324 327 325 323 323 324 328
308 307 308 308 309 310 311 311 312 313 311 310 312 313 312 312 313 314 316 317 317 318 319 318 315 317 321 318 313 313 312 314 316 314 313 315 312 312 314 314 312 311 313 314 314 311 313 316 316 315 315 315 315 317 318 318 316 317 319 316 315 318 317 315 318 316 315 319 318 316 317 313 314 319 316 315 321 322 318 317 316 319 323 323 324 325 326 329
308 308 307 308 308 309 309 308 308 310 311 311 312 312 312 313 312 312 314 315 316 317 318 316 315 318 320 316 314 315 312 313 317 315 313 315 314 313 313 313 312 312 316 318 314 315 319 318 313 312 313 312 311 315 319 322 319 317 319 318 315 316 317 318 321 319 315 317 316 314 315 313 313 316 316 320 325 324 321 318 318 319 322 325 327 328 327 326
307 308 307 307 308 308 307 306 306 308 310 311 312 312 311 312 313 313 313 313 315 318 318 316 315 318 318 316 317 316 314 314 315 315 315 314 314 313 310 311 312 313 317 316 312 316 321 316 312 313 313 311 311 317 321 321 320 319 318 318 317 316 316 317 318 316 314 315 315 314 313 313 312 313 318 323 327 326 323 322 322 321 322 325 327 327 328 327
304 306 306 306 308 308 307 306 306 306 308 310 311 311 312 312 312 313 314 313 314 316 316 316 317 319 319 318 318 317 316 315 315 317 318 316 315 315 313 312 311 312 316 314 311 316 318 315 314 313 312 312 312 316 321 320 318 319 317 317 317 315 315 316 315 315 315 315 314 314 314 314 312 312 315 317 321 324 323 321 320 319 321 325 324 325 327 328
302 303 303 303 306 308 308 307 305 306 307 308 309 310 311 312 312 313 314 314 315 315 316 318 319 319 319 318 318 320 318 315 316 318 319 318 317 317 317 316 313 312 316 314 311 314 317 318 318 313 311 314 312 314 321 320 317 317 316 316 316 314 315 315 314 314 315 314 314 315 316 316 312 311 313 314 316 318 317 317 320 320 321 323 323 325 327 327
301 302 302 303 306 307 308 308 306 307 307 307 309 309 310 311 312 313 314 314 315 315 315 316 318 318 318 318 319 321 318 316 318 319 318 319 319 319 319 320 317 313 314 314 312 311 313 320 321 314 312 315 312 313 318 319 316 316 317 316 315 314 314 314 315 315 314 314 314 315 316 315 311 312 315 315 313 311 311 314 318 319 319 321 323 324 322 320
299 299 300 304 305 305 308 308 307 308 308 308 309 310 309 310 311 312 313 312 313 315 314 315 316 316 315 316 318 320 317 317 319 319 317 318 320 319 317 317 318 316 314 314 315 313 312 318 319 315 314 315 314 315 315 313 312 313 315 316 316 315 314 313 314 314 314 315 316 315 315 314 312 314 316 315 312 311 312 313 314 315 317 317 316 316 314 313
298 298 299 303 305 305 307 309 308 308 309 308 309 309 309 310 310 311 313 313 313 314 314 314 314 315 316 316 317 317 317 317 316 315 315 317 318 318 317 316 318 319 316 316 318 318 316 318 320 318 318 317 316 316 314 312 312 313 314 315 314 313 313 313 313 313 314 315 315 316 315 313 313 315 316 314 314 314 313 313 313 314 313 313 313 312 311 312
Wind_Speed
23 20 19 18 17 16 15 14 14 13 12 12 12 12 10 10 12 14 16 15 15 17 17 16 15 13 11 9 8 8 7 7 7 7 8 11 14 14 10 9 10 8 6 5 5 5 3 3 1 3 4 3 4 1 2 3 3 4 3 4 2 3 4 6 7 7 5 3 5 5 6 8 5 3 2 1 5 3 1 3 2 2 2 3 5 4 7 21
22 20 20 19 17 16 15 14 13 12 12 12 12 11 10 11 13 15 15 15 15 16 15 15 14 12 10 8 7 6 5 6 6 7 14 16 11 11 12 10 9 7 6 5 6 7 5 2 2 5 5 3 2 2 2 2 3 4 3 3 3 6 5 6 7 6 2 1 5 5 4 5 5 4 3 2 1 2 2 3 4 4 5 2 5 2 16 23
23 22 21 19 17 17 15 15 13 13 13 12 11 10 10 11 14 15 15 14 14 15 14 14 13 11 9 8 7 5 4 3 3 8 16 18 13 11 10 9 9 7 6 5 6 6 6 6 6 5 5 3 1 2 3 2 1 2 4 3 5 6 4 4 6 6 3 3 6 5 3 2 4 3 2 3 2 1 5 5 1 4 8 3 2 8 19 21
24 23 22 19 18 17 15 15 13 13 13 12 10 10 10 12 13 14 14 13 13 13 13 12 12 11 9 7 6 6 4 2 3 8 13 16 16 13 8 9 9 7 6 7 7 6 7 8 6 5 4 3 4 3 2 1 0 2 4 4 5 3 1 2 5 5 4 4 6 5 3 1 4 2 2 6 5 2 6 8 8 9 9 5 3 9 18 19
25 24 23 20 18 17 16 15 14 13 13 11 11 9 10 12 12 13 13 12 12 12 11 11 11 10 9 7 7 7 5 3 3 5 8 14 16 13 9 9 9 7 7 8 8 8 8 7 6 5 4 2 2 3 1 2 1 2 1 4 5 3 1 0 2 3 3 3 5 6 5 4 2 1 3 8 7 6 7 7 10 10 8 9 9 12 14 15
25 24 24 22 18 17 16 15 14 13 12 10 10 9 9 11 11 12 12 11 10 11 10 10 10 9 8 7 7 7 6 1 2 1 7 13 15 13 10 10 9 8 7 8 8 8 6 5 5 3 3 2 1 2 2 3 2 2 1 1 4 3 1 1 1 2 3 6 7 7 5 3 4 1 2 7 8 7 5 4 6 6 7 9 12 14 13 13
26 24 24 22 19 18 17 16 15 13 12 10 9 7 8 10 11 11 11 10 9 10 10 10 10 9 8 7 6 4 2 3 2 2 6 10 14 12 10 10 9 8 8 8 7 6 5 6 4 4 4 3 2 2 1 1 4 4 1 1 2 3 1 1 1 1 4 6 6 4 3 3 4 4 1 5 10 7 3 1 2 6 11 11 12 12 13 15
26 24 23 21 19 19 18 16 15 13 11 10 8 6 7 8 10 11 10 10 9 9 10 10 9 9 9 9 6 2 2 4 1 3 5 8 12 12 11 10 9 9 8 8 7 6 5 6 5 4 4 1 4 3 1 2 4 3 3 2 3 2 2 2 2 4 3 3 2 3 4 1 4 4 1 7 10 7 4 2 4 7 10 10 11 11 11 13
26 24 23 20 18 20 19 17 15 14 11 10 7 5 6 7 9 10 10 9 8 9 9 10 9 9 11 8 5 2 4 4 2 4 4 7 10 11 11 10 10 9 8 7 7 8 5 4 5 4 4 3 4 4 1 3 1 2 4 2 3 1 4 2 3 5 3 1 1 4 2 4 2 1 3 8 7 5 1 6 6 7 7 7 9 11 11 11
25 24 22 19 18 21 20 17 16 13 11 10 7 5 5 5 8 8 9 8 8 9 9 10 10 11 11 5 5 3 4 2 4 6 5 7 9 11 11 9 10 9 9 6 6 9 5 5 6 5 5 3 3 3 1 3 2 3 6 5 4 2 4 2 3 4 2 1 1 5 3 4 2 1 4 4 4 3 3 6 4 7 8 8 7 9 12 12
25 24 22 18 19 22 21 19 16 14 12 10 7 6 5 5 7 7 8 8 8 10 10 11 10 12 10 5 5 4 3 2 5 6 5 6 7 10 10 8 8 9 9 6 6 8 4 7 10 5 2 2 3 2 1 2 4 4 6 5 6 5 3 4 4 3 3 2 1 5 3 4 3 1 6 3 4 1 6 4 3 6 6 7 7 7 9 12
24 23 21 19 21 22 21 19 17 14 12 10 7 7 6 5 6 7 8 8 8 9 10 11 11 13 8 3 3 6 3 2 5 5 5 5 6 9 8 7 7 7 7 4 6 8 4 9 12 6 1 4 5 1 2 2 4 3 4 4 5 7 3 4 2 3 2 2 1 3 2 5 3 6 8 2 4 4 6 3 4 6 6 5 6 6 7 11
23 22 21 20 22 21 20 18 16 14 13 11 9 8 7 5 6 7 7 8 9 9 10 11 11 12 7 1 5 7 5 3 5 6 5 5 6 7 7 7 7 5 6 4 6 7 6 11 10 6 3 6 3 2 4 4 3 1 3 4 1 6 4 4 2 2 1 2 3 1 1 6 8 10 8 4 5 4 2 4 6 5 5 5 5 5 7 10
23 22 22 21 21 21 18 16 15 14 13 11 9 9 7 5 7 8 8 8 8 9 10 11 12 10 5 2 4 6 7 5 6 6 6 6 6 7 6 6 5 4 5 4 5 7 7 10 9 6 3 4 3 2 4 5 3 2 2 2 2 1 4 6 3 0 3 1 2 4 2 7 9 10 7 6 4 1 4 6 6 5 5 5 5 6 7 9
23 22 22 21 21 20 17 16 15 13 13 12 9 9 7 6 7 8 8 9 8 8 10 12 13 8 2 3 3 4 7 5 6 6 6 6 6 6 5 6 5 4 5 5 7 8 8 9 8 6 1 2 4 5 4 4 4 3 2 1 2 3 5 7 3 1 3 1 4 6 2 6 8 9 7 4 3 4 6 7 5 5 6 6 5 6 7 8
24 23 22 21 20 19 17 16 15 13 13 12 10 9 7 6 7 8 8 8 8 9 9 10 10 7 3 2 1 2 4 5 7 7 6 8 6 5 7 9 8 8 8 8 10 10 7 7 5 2 3 3 4 6 4 3 3 4 2 2 1 3 3 5 1 2 1 1 3 3 3 4 4 7 6 2 4 4 2 7 7 6 6 6 5 6 7 8
24 23 22 21 20 18 17 15 14 14 13 12 11 9 7 6 7 7 9 10 10 9 8 9 9 4 1 1 1 1 3 4 8 8 7 7 6 7 10 8 7 8 10 9 8 6 5 5 2 0 3 3 2 6 5 0 3 3 3 2 2 3 2 3 2 3 4 2 1 2 2 6 6 8 8 4 2 3 4 7 8 6 7 6 5 6 6 8
25 24 22 21 20 18 16 15 15 14 13 12 11 10 9 8 8 9 11 13 12 8 5 5 6 3 2 2 2 2 1 5 9 9 8 7 7 9 7 5 5 8 8 5 3 3 3 4 2 2 3 3 2 5 5 5 5 5 3 2 2 2 3 3 2 2 4 2 1 2 3 9 12 11 10 6 3 1 7 7 7 8 7 7 6 7 7 7
26 24 22 21 20 19 16 15 15 14 14 14 15 16 14 11 10 8 8 8 7 4 2 3 4 3 4 3 1 1 4 8 9 7 7 8 8 9 6 5 6 7 5 2 1 1 1 3 3 3 3 3 5 6 7 7 8 9 6 4 4 3 3 5 4 4 1 2 3 5 5 8 11 11 11 8 1 1 8 6 7 8 7 8 7 7 8 8
27 25 23 21 20 19 17 15 15 15 15 18 21 18 11 8 6 3 1 1 2 4 3 4 5 3 0 2 1 5 7 6 4 4 7 8 9 9 6 5 5 6 3 4 2 1 3 3 3 5 6 7 8 6 6 5 6 7 5 4 4 4 3 3 3 5 1 3 3 4 4 9 11 12 13 10 4 4 9 9 9 9 8 9 8 9 9 10
28 27 24 22 21 19 17 15 14 15 17 23 22 11 4 6 4 3 2 2 4 3 2 0 3 3 1 1 2 5 5 4 3 3 6 6 8 8 1 3 5 2 1 2 2 2 4 4 7 6 7 7 6 6 7 6 6 6 6 5 2 3 3 2 1 5 3 1 3 3 5 10 11 12 12 10 8 8 10 10 11 11 10 9 9 11 10 8
30 28 26 23 21 19 17 16 14 16 18 21 14 2 3 5 5 7 6 2 4 3 3 1 2 2 1 1 4 2 2 3 2 2 3 4 4 5 1 4 6 3 1 1 3 2 2 4 7 6 5 7 7 6 8 7 6 5 4 5 2 2 3 3 2 4 4 1 3 4 5 10 11 12 13 11 10 9 8 9 10 9 10 10 10 10 9 8
32 29 27 24 21 20 17 16 15 16 18 16 8 3 4 6 8 9 6 4 2 0 3 2 3 3 2 0 4 2 3 4 4 3 2 4 3 3 4 5 5 4 1 3 5 5 4 5 6 6 7 9 6 4 8 7 5 4 4 5 3 2 1 2 2 4 4 2 1 3 5 9 8 8 11 11 8 7 7 9 9 8 10 13 11 8 7 9
34 31 28 25 23 21 17 16 14 15 17 13 9 8 8 9 12 10 3 3 2 1 1 1 2 4 3 3 5 5 3 2 4 4 4 6 4 2 4 5 5 4 3 5 7 7 5 4 2 7 6 7 7 3 5 6 2 1 3 5 4 3 4 3 2 2 3 3 3 3 5 7 5 5 8 7 5 5 5 6 9 9 10 11 10 9 9 10
35 32 29 27 23 21 19 17 14 15 16 11 13 13 8 8 11 8 3 3 1 2 1 1 1 3 5 5 4 5 3 1 2 3 3 6 6 3 2 2 3 4 3 4 7 5 5 3 4 8 5 5 8 4 4 7 3 2 3 6 6 7 6 2 2 3 4 4 4 4 3 6 5 5 8 6 7 7 5 5 9 10 7 7 8 10 10 9
37 33 31 27 24 24 19 11 12 18 14 10 18 17 7 6 9 6 4 4 2 2 1 3 2 5 8 4 3 4 4 1 2 1 3 5 4 4 3 1 2 3 4 5 4 2 1 1 4 7 6 6 7 4 5 6 6 2 4 5 6 7 7 6 4 4 1 2 3 4 2 5 7 6 8 5 7 10 9 7 10 9 6 6 7 9 8 8
37 34 32 27 26 27 15 7 14 18 8 10 21 19 9 7 7 4 5 5 4 2 4 1 0 6 9 3 3 6 3 3 1 3 2 3 1 4 4 3 1 1 3 4 2 2 2 3 4 5 6 6 6 4 6 7 7 3 3 5 8 7 7 6 6 4 2 3 4 4 4 2 6 6 6 5 6 10 10 10 11 8 7 7 7 8 8 8
35 33 31 27 28 25 14 12 20 17 5 7 20 18 9 9 6 3 6 3 3 2 3 2 1 5 4 1 3 5 2 2 4 1 3 4 2 4 3 5 5 4 1 4 4 3 2 4 5 6 5 4 4 5 7 10 6 3 3 6 6 7 7 5 6 4 1 1 4 5 2 1 6 7 5 5 4 8 10 12 12 9 9 9 8 8 8 8
34 32 29 28 28 20 13 14 20 20 10 8 18 19 12 9 5 4 4 2 1 1 1 2 3 3 2 3 4 3 2 2 2 3 2 4 2 4 4 5 6 7 2 3 5 2 1 3 6 6 5 5 3 1 2 6 3 4 6 7 6 6 6 5 5 4 3 2 4 5 0 1 6 7 5 2 3 7 9 9 9 8 9 8 8 8 7 6
32 31 30 31 27 17 12 12 18 23 14 8 18 21 14 7 3 5 3 3 2 1 0 2 2 2 5 7 2 2 3 2 1 1 3 1 3 6 3 2 6 7 3 5 3 1 2 1 2 3 3 5 4 4 3 2 5 7 6 7 7 6 5 4 3 4 3 2 6 6 2 0 3 7 5 4 5 6 5 6 7 8 8 7 7 7 6 6
32 30 32 32 26 19 13 7 16 22 14 11 20 20 11 4 2 5 5 3 2 2 1 1 1 4 10 12 5 1 3 2 0 3 3 1 3 4 2 1 3 4 3 3 1 3 4 2 0 1 2 4 6 5 5 4 5 6 4 5 5 4 5 4 4 4 2 5 6 4 2 1 4 6 5 5 6 6 5 5 7 8 8 8 7 6 6 6
31 29 33 32 25 21 13 6 16 21 14 17 20 12 6 4 2 5 4 2 2 2 4 4 3 6 11 11 6 4 4 2 1 4 5 3 3 4 3 4 4 3 0 3 1 3 2 0 1 1 1 4 5 5 5 5 4 5 5 6 5 2 3 2 3 1 3 5 4 2 1 2 6 8 8 11 11 7 7 7 7 8 8 8 8 7 6 6
30 29 32 30 25 22 12 9 19 20 17 21 14 5 4 5 6 8 5 3 3 2 4 4 2 5 9 8 5 4 4 2 3 3 3 3 4 4 2 3 6 5 2 4 3 1 2 4 2 1 1 2 5 5 3 1 1 4 6 5 5 3 2 2 4 2 3 4 3 3 2 3 5 5 9 15 13 5 4 7 8 7 8 8 8 8 8 7
29 29 30 27 25 22 12 12 20 19 18 18 8 5 6 5 8 9 7 4 2 1 3 3 5 6 7 5 4 5 4 1 4 4 3 4 5 5 4 4 4 5 4 3 3 5 4 4 3 3 2 2 4 4 5 6 3 2 3 5 6 5 5 4 4 3 4 3 3 3 2 3 3 3 6 11 9 6 5 7 6 7 8 7 7 8 8 8
28 30 29 24 24 23 13 12 19 19 16 11 5 7 9 8 7 7 7 5 1 2 3 3 7 7 4 1 1 4 3 1 3 4 4 5 6 7 6 6 6 4 6 5 3 3 4 5 4 2 2 4 4 2 3 6 2 2 2 5 3 4 5 3 3 5 3 1 2 2 3 5 4 6 8 7 7 7 6 6 5 7 7 5 6 7 6 6
28 28 25 22 23 22 14 12 19 20 14 7 6 8 8 7 5 5 6 5 4 6 7 4 4 5 4 1 0 5 1 2 4 3 3 4 3 6 7 5 7 6 6 6 3 2 3 3 4 3 2 2 2 2 1 3 3 2 2 3 5 4 8 6 2 1 3 1 3 1 4 6 4 7 9 6 7 9 6 6 5 6 6 5 6 6 6 6
29 24 18 19 22 21 15 15 19 17 8 5 9 9 6 4 3 3 4 5 6 8 10 5 1 4 6 3 4 7 2 3 4 3 4 3 2 6 8 5 6 9 7 4 2 3 5 1 4 2 1 1 0 2 3 3 3 5 3 5 4 3 5 5 2 3 4 2 4 1 5 5 2 4 7 5 4 8 9 7 5 6 5 4 4 5 7 7
26 18 12 16 22 21 16 15 17 11 3 3 9 8 3 2 2 2 3 5 7 7 7 6 3 3 6 6 5 7 6 4 5 4 4 4 4 6 10 5 3 8 7 3 1 2 5 3 3 2 2 4 3 3 2 4 3 4 4 3 4 3 2 2 2 2 1 2 4 4 4 4 4 6 6 4 5 7 10 8 6 7 6 4 3 5 7 6
21 11 6 12 20 20 17 15 11 7 3 5 10 8 2 2 1 2 1 4 6 6 5 6 2 2 5 6 5 6 6 6 8 6 4 5 5 5 9 6 2 7 8 5 3 2 4 3 2 2 2 3 3 2 5 1 3 3 2 2 3 3 4 2 2 4 3 3 3 4 4 3 7 6 5 8 9 8 9 8 7 8 4 1 2 5 7 6
11 4 2 8 17 20 18 12 6 4 4 6 7 5 1 2 1 2 2 2 3 3 4 5 4 4 4 3 4 5 5 5 8 6 4 5 5 4 6 7 5 7 7 5 4 2 2 3 3 3 3 1 2 3 6 6 3 2 3 3 2 2 2 2 0 2 4 4 3 2 4 5 6 4 7 10 8 8 8 6 8 7 1 2 5 6 6 6
2 2 2 5 15 21 17 9 3 4 5 2 2 2 0 2 2 1 3 1 2 1 3 5 5 5 5 4 4 5 4 3 6 5 3 5 6 4 5 7 8 9 6 5 3 4 2 3 4 1 1 3 4 3 4 6 5 6 5 6 6 4 4 3 3 1 3 3 4 3 4 8 6 4 7 7 5 7 6 4 7 8 3 4 6 7 7 6
2 3 1 4 15 20 13 5 1 2 2 2 2 2 2 2 3 1 1 2 2 1 2 4 3 3 5 5 4 6 6 4 5 5 4 7 8 6 4 5 10 11 9 5 3 3 3 4 4 2 3 5 4 3 2 3 2 3 4 4 6 5 5 6 6 4 2 1 2 4 2 8 5 4 6 6 4 5 5 5 7 8 6 6 6 6 6 4
2 2 1 6 17 16 8 3 2 1 1 2 0 2 2 2 2 2 1 1 2 2 2 2 2 2 3 4 5 7 8 5 6 8 6 6 6 4 5 8 11 11 9 5 3 3 2 4 4 1 3 3 4 4 3 1 1 2 4 3 5 3 3 6 5 4 4 3 2 3 3 7 4 1 3 5 5 5 5 6 7 7 7 6 5 4 2 1
2 2 2 5 12 9 3 4 6 6 3 1 2 2 1 1 2 2 2 1 1 2 3 1 2 2 2 3 5 8 10 5 6 9 5 3 4 2 4 10 11 10 7 5 6 6 3 3 5 3 2 4 4 3 3 2 2 3 3 2 4 4 6 5 2 4 2 5 7 5 6 8 4 4 2 2 5 5 4 4 5 5 5 4 3 3 1 2
2 1 3 2 2 1 1 2 3 5 4 3 3 3 2 2 1 1 2 2 1 3 3 2 1 3 3 3 4 5 8 4 3 6 4 2 2 2 1 7 9 8 4 2 6 8 6 4 5 6 6 6 6 5 5 4 3 2 1 3 5 7 8 5 2 4 3 5 6 6 8 8 3 5 5 4 5 4 4 3 2 4 5 3 3 4 4 3
2 1 1 1 3 2 1 2 2 2 3 4 3 3 5 3 1 1 1 2 1 2 3 1 2 3 2 4 5 4 7 3 2 4 5 4 3 1 1 4 6 4 1 5 9 7 3 3 6 9 11 12 11 7 4 7 6 5 5 7 8 8 10 7 4 4 8 5 4 8 12 12 8 2 4 6 4 3 4 4 4 6 6 4 4 5 5 5
2 1 2 2 1 1 1 2 3 2 2 5 4 3 8 7 1 1 1 0 2 2 3 2 2 3 4 6 6 5 7 5 1 3 4 3 2 1 2 1 3 1 1 5 7 5 4 4 8 10 13 13 9 6 4 7 9 11 11 11 10 11 11 10 8 12 11 5 7 13 11 13 15 6 5 8 5 4 6 5 6 6 5 5 5 5 6 6
1 0 1 0 0 2 3 4 6 4 3 5 2 2 8 10 6 4 1 1 0 1 2 0 1 4 6 7 6 5 6 5 3 3 2 1 2 1 3 2 1 1 1 3 3 4 5 6 7 8 11 12 6 5 6 7 7 9 12 13 14 13 14 15 16 18 12 9 14 14 10 12 19 10 9 10 7 6 7 6 5 4 5 7 5 5 7 7
1 1 1 2 1 2 3 5 9 7 6 6 2 2 7 11 12 8 2 3 1 1 2 3 4 5 5 4 5 5 6 5 5 5 3 3 3 3 2 1 1 2 2 4 2 2 4 5 5 8 9 12 8 6 7 8 6 6 8 12 14 15 17 19 19 21 18 15 16 11 6 13 18 9 8 9 8 7 4 2 3 4 6 7 5 6 8 7
1 1 0 2 2 1 1 6 9 7 5 6 4 3 5 9 13 9 3 4 6 4 4 6 6 5 5 4 4 4 5 4 4 7 6 5 3 2 3 4 2 1 1 4 2 2 3 3 3 6 4 9 7 7 7 7 7 6 6 7 11 14 16 18 19 17 14 12 13 12 9 15 14 5 7 9 7 5 3 3 5 6 6 7 7 9 9 8
2 1 2 3 1 1 2 4 7 5 4 5 5 4 5 8 11 9 3 4 7 6 7 8 6 4 3 3 3 4 4 3 5 6 7 6 5 4 3 3 5 5 4 4 3 2 4 2 2 5 4 7 4 7 7 4 4 2 6 6 11 13 13 14 13 11 10 10 12 12 10 15 12 5 7 9 5 6 7 8 8 8 9 10 11 11 10 9
3 1 1 3 1 1 2 3 6 5 4 5 6 6 6 7 8 7 4 2 3 5 6 7 8 5 3 5 7 6 6 6 6 6 5 5 4 3 3 3 5 7 6 5 2 2 5 4 2 4 5 6 2 6 8 7 5 3 9 13 15 13 11 10 7 8 12 12 11 10 11 16 12 4 6 8 6 8 11 10 9 11 12 11 11 11 10 8
Wind_Direction
184 173 177 182 178 179 180 177 177 178 177 176 177 178 177 176 182 187 190 196 196 193 196 200 200 200 200 202 207 218 234 245 243 221 217 237 237 234 245 233 216 220 209 200 193 176 138 82 117 106 103 64 12 339 37 20 61 60 82 101 151 180 203 185 179 192 170 209 212 212 182 166 211 221 190 66 47 55 51 325 321 313 264 231 278 303 162 162
178 174 179 179 175 178 179 178 180 179 176 177 180 178 174 176 182 185 188 196 195 192 196 199 201 201 200 198 200 210 229 245 251 246 237 237 241 235 237 233 210 205 198 192 194 177 144 118 138 94 66 47 350 358 51 4 65 86 108 109 207 200 206 194 175 185 174 178 181 194 184 179 207 173 151 186 345 33 140 281 340 326 265 270 319 169 158 162
175 176 177 175 175 177 178 181 180 177 178 182 182 176 175 178 182 184 187 193 194 193 197 199 202 203 200 192 189 198 208 252 282 261 248 237 236 236 228 223 205 193 191 183 178 168 156 156 140 102 58 59 347 15 71 14 43 143 116 111 234 212 219 218 179 187 206 157 152 184 175 178 237 168 162 182 146 110 194 227 248 264 250 250 319 149 155 163
176 178 177 174 175 177 178 180 178 178 183 184 180 177 181 181 181 184 186 189 193 197 198 199 203 204 199 189 182 183 160 13 288 238 242 232 226 230 220 209 194 179 181 166 151 136 133 134 112 83 72 63 335 9 96 340 260 142 119 166 224 197 188 214 193 201 206 169 152 161 135 168 244 186 153 147 133 256 241 224 201 212 214 187 199 162 159 165
178 180 180 176 175 179 179 177 178 181 185 185 181 185 186 183 181 182 185 185 191 199 201 201 204 203 199 187 183 178 123 50 268 215 214 212 211 217 208 193 182 171 171 157 143 122 115 111 82 61 68 87 354 36 119 308 88 111 133 183 187 155 113 181 202 200 172 150 135 137 156 186 188 137 151 151 167 233 234 224 212 207 186 164 170 166 164 170
179 180 180 179 176 178 177 176 178 181 187 186 184 189 184 180 178 180 184 183 187 197 203 204 204 200 193 185 185 173 134 142 292 173 192 191 193 203 194 184 176 167 168 155 140 123 106 75 71 82 60 76 102 106 191 309 43 126 258 205 186 182 109 20 316 233 158 136 150 163 179 146 116 195 177 171 206 223 208 226 230 199 162 155 155 159 167 178
179 178 179 180 178 177 176 176 179 181 186 186 186 189 177 172 175 180 184 181 182 191 200 205 202 196 184 172 168 138 140 253 319 131 191 182 185 192 185 185 175 168 169 152 136 119 103 86 108 144 85 80 159 135 178 360 41 96 165 248 170 171 141 346 6 193 158 152 185 186 136 121 162 193 108 216 235 236 221 288 249 165 145 146 151 166 177 183
180 180 180 180 178 176 175 175 178 182 184 183 186 183 170 168 173 179 183 182 179 185 198 200 195 190 175 161 145 76 275 254 287 156 188 180 184 184 182 186 175 174 169 161 159 140 126 121 149 151 95 160 163 123 150 86 40 81 161 205 125 130 296 316 66 80 111 144 192 131 119 225 205 169 122 244 247 262 261 73 94 132 136 153 164 179 185 189
182 181 181 180 177 175 175 175 176 181 179 179 185 177 166 166 170 177 183 181 175 182 193 191 191 182 170 154 118 121 235 236 214 187 185 185 185 180 182 183 178 176 158 164 172 153 157 160 176 178 149 184 134 119 159 119 228 172 142 156 112 62 320 333 92 50 56 114 65 127 121 309 234 178 277 256 259 282 294 87 106 130 144 178 179 185 188 192
182 182 181 179 176 175 175 173 174 176 174 178 186 172 164 163 165 175 180 178 173 180 186 185 188 175 167 147 106 169 241 238 208 200 187 188 185 178 180 179 179 175 153 150 158 155 174 186 176 161 137 140 113 113 162 144 180 140 118 112 80 27 329 28 99 15 7 107 52 147 177 300 302 316 262 262 313 296 121 95 123 148 170 192 190 199 197 201
184 182 180 177 175 176 175 171 171 173 172 176 183 171 168 170 164 169 176 176 172 175 181 181 181 174 165 133 131 196 247 202 200 194 185 191 182 176 175 176 177 172 157 140 166 176 190 184 157 124 126 162 124 75 266 170 113 109 124 106 20 3 3 30 78 5 357 101 68 127 140 306 355 311 232 232 346 17 138 133 165 172 198 199 197 208 206 217
185 182 180 177 174 176 175 172 169 171 172 175 181 170 170 186 174 170 173 175 175 175 177 175 177 172 152 98 179 217 241 194 197 187 186 187 171 168 165 171 174 173 171 149 185 191 190 176 142 103 223 152 129 114 180 118 89 114 120 117 347 4 19 358 39 323 351 111 312 109 75 300 239 234 240 258 358 58 122 178 221 206 221 215 211 217 214 226
184 181 179 176 174 175 175 171 168 169 170 171 175 167 173 192 174 169 173 175 178 175 171 170 174 165 139 78 225 226 240 216 196 186 182 182 165 160 158 165 165 175 189 180 187 178 169 173 139 107 128 110 131 184 120 66 66 139 67 105 24 12 349 319 360 314 108 116 314 127 225 276 248 247 257 303 337 23 93 225 235 232 235 229 227 228 230 231
182 177 176 173 172 175 174 171 169 168 166 168 172 168 177 186 169 167 167 171 177 172 165 164 164 152 131 239 232 226 232 215 195 186 176 184 165 147 147 160 169 186 192 187 175 160 159 164 124 99 106 94 142 115 54 23 27 90 61 66 64 105 260 301 323 191 137 161 3 111 196 271 264 267 272 302 320 240 253 254 238 244 250 241 235 233 241 237
180 175 173 171 171 173 172 171 169 166 163 166 166 169 183 185 171 163 159 166 169 160 153 154 159 142 104 265 253 219 217 202 186 185 172 177 162 141 142 148 143 140 158 160 146 136 140 142 104 87 98 18 96 91 42 13 22 41 103 312 353 163 254 310 318 155 145 209 43 102 210 272 268 272 275 320 21 158 231 267 271 263 256 243 239 235 242 248
178 174 173 171 171 172 171 170 167 162 161 163 163 167 177 182 171 157 155 156 145 146 147 150 157 138 107 228 250 189 202 189 174 174 164 166 162 139 134 129 113 111 124 122 120 116 101 98 77 81 116 67 93 100 67 33 358 1 102 187 255 165 264 316 333 337 47 128 17 82 217 268 282 278 280 335 61 91 250 283 288 276 267 250 237 236 240 253
177 174 173 172 172 172 171 168 162 159 159 161 161 159 157 168 168 149 137 129 125 130 138 152 153 129 97 169 146 223 205 174 166 161 154 157 154 142 133 116 96 103 108 106 111 98 52 53 54 318 67 69 114 101 87 14 265 308 46 121 226 181 204 289 286 330 27 88 296 23 227 250 274 283 287 286 95 40 315 284 286 282 278 266 248 249 243 246
176 173 171 172 173 173 171 165 159 159 160 155 149 141 134 137 136 126 126 123 114 97 97 137 131 120 245 218 176 223 192 151 153 148 143 143 146 145 132 104 106 104 90 79 79 60 25 29 65 111 48 55 131 117 146 206 197 194 184 149 218 209 206 255 253 284 17 64 231 317 270 263 274 279 286 278 166 267 279 272 284 279 272 269 257 252 247 244
177 173 170 172 173 173 172 163 158 162 156 144 135 126 115 107 100 104 126 126 115 107 132 168 140 148 223 239 211 119 113 134 140 136 129 129 140 133 98 88 104 94 92 97 63 49 68 54 69 133 151 166 186 173 177 198 180 175 178 146 153 175 232 244 247 276 343 103 243 252 253 270 277 279 287 284 154 249 281 282 280 270 266 265 256 249 247 244
177 173 170 172 173 174 174 164 160 164 155 143 137 126 113 110 93 80 231 227 174 164 150 170 156 130 284 304 37 114 115 116 115 120 127 133 139 122 70 46 65 60 101 145 147 77 95 127 185 187 186 193 196 173 142 154 144 136 132 119 148 177 244 255 263 303 351 135 259 270 273 276 273 276 278 280 305 303 280 278 271 264 260 258 253 253 249 245
178 174 171 172 173 174 173 166 161 163 158 153 148 135 147 161 135 167 203 288 231 182 64 208 152 101 13 254 156 137 116 78 41 75 130 142 139 138 57 24 97 74 314 160 137 78 94 167 213 207 189 180 161 131 106 97 88 97 136 143 166 199 229 261 260 316 353 148 267 359 328 277 267 274 274 276 288 273 255 256 261 260 259 259 255 255 253 258
179 177 174 171 173 175 172 165 163 167 165 164 164 158 191 163 126 153 148 129 227 189 79 74 121 90 360 214 185 162 60 84 77 6 142 130 115 159 176 65 128 165 297 123 117 100 135 219 228 205 155 107 87 90 94 90 88 88 115 135 170 226 238 278 300 330 6 105 263 352 336 279 265 268 268 263 259 253 244 241 249 257 262 262 255 254 260 271
181 178 175 172 172 172 169 163 163 172 173 173 185 196 155 138 130 144 127 98 197 229 85 122 146 144 60 257 197 152 79 133 165 250 203 129 102 163 132 102 135 142 153 176 151 150 184 251 239 180 138 111 88 64 91 88 79 93 110 135 188 250 188 222 291 331 9 70 261 325 312 283 279 281 274 265 258 263 263 255 253 247 248 256 261 266 265 260
180 178 176 173 170 167 164 159 159 175 180 184 204 185 136 124 144 152 100 71 144 266 215 185 158 163 142 147 179 150 108 147 166 194 189 139 127 141 135 130 130 129 183 185 152 160 204 263 191 135 126 125 122 99 115 118 81 82 145 145 166 198 177 191 284 328 4 28 32 13 322 294 307 313 284 286 313 293 281 287 277 253 243 256 272 274 258 251
178 178 175 171 167 162 155 154 161 175 178 194 210 187 135 120 149 154 89 69 191 314 300 217 160 190 164 125 156 159 124 138 197 207 185 146 137 130 133 128 134 167 186 136 130 171 231 258 130 124 110 111 127 162 180 154 153 268 215 178 173 172 163 147 34 53 33 356 360 25 335 289 315 311 273 299 339 307 301 306 277 265 257 252 260 263 254 251
177 176 173 167 161 156 152 156 171 170 170 208 205 186 172 149 144 140 91 58 292 280 175 175 146 178 171 133 146 137 105 230 266 29 126 140 130 106 127 119 59 171 170 128 133 183 222 22 93 127 130 119 130 183 212 155 131 220 236 175 149 132 129 129 107 86 86 267 327 47 143 265 311 292 265 310 336 306 304 295 275 276 277 248 242 254 250 248
173 173 170 165 161 159 155 151 164 161 164 219 198 184 194 180 148 133 81 44 287 212 142 191 7 162 170 172 155 133 150 231 114 61 74 119 89 60 118 182 101 154 174 123 153 235 137 87 73 103 111 117 140 195 209 148 128 213 232 133 126 123 133 139 109 96 191 241 331 18 115 247 298 267 268 330 331 307 305 292 285 292 292 275 258 255 250 247
171 170 167 163 163 169 173 153 158 170 179 191 183 180 180 169 159 117 91 84 259 153 130 228 123 138 146 73 100 113 197 213 124 180 344 74 92 50 99 192 159 147 155 127 187 260 107 145 167 140 121 145 180 216 189 144 126 234 197 122 123 124 126 119 95 90 37 354 312 318 92 196 273 272 304 349 315 291 285 274 279 293 297 294 287 276 266 259
171 169 166 163 163 175 190 168 169 184 183 154 168 171 160 159 160 84 92 166 224 80 123 152 121 125 115 100 83 64 47 36 118 227 347 73 74 50 119 189 138 123 65 105 172 243 56 184 193 147 147 187 195 296 172 138 130 182 142 100 79 77 79 79 89 100 53 16 250 262 295 190 265 280 297 329 256 255 262 267 272 279 285 290 296 295 289 283
172 170 166 164 164 169 168 173 186 184 177 160 163 160 148 150 137 106 156 219 160 103 109 139 166 160 135 137 104 10 85 57 13 55 23 77 33 32 104 150 101 113 42 40 100 243 320 259 190 118 154 182 138 70 38 87 130 139 117 78 62 39 35 49 57 81 65 306 253 254 287 181 267 277 254 220 221 217 236 284 289 292 302 301 302 310 310 308
173 172 170 167 170 170 153 173 200 184 177 169 159 152 138 104 75 139 189 217 125 93 70 134 198 142 151 159 166 157 106 54 346 126 122 147 53 50 115 120 75 81 31 29 42 318 353 30 211 158 138 129 101 68 32 36 95 107 96 92 84 11 11 26 1 41 106 257 260 268 293 166 229 260 252 245 254 233 216 256 278 291 307 308 308 318 319 314
173 173 173 172 174 173 166 192 189 177 175 167 155 145 131 110 168 192 189 165 156 185 170 181 207 174 168 163 151 152 131 89 166 147 144 148 149 162 162 171 154 93 309 204 202 334 356 8 287 338 171 149 115 82 41 1 18 73 103 106 98 15 14 4 313 335 214 246 268 282 245 209 237 250 260 267 269 254 220 228 246 262 283 297 303 311 316 314
175 174 174 177 177 173 172 178 172 167 168 166 152 99 99 142 198 205 194 174 193 198 151 149 153 156 157 150 150 157 124 141 181 153 136 131 156 196 241 190 155 127 189 183 126 111 287 303 317 84 254 196 144 130 131 227 234 125 138 131 130 122 99 241 263 284 258 260 289 288 248 259 276 265 249 252 260 263 226 229 234 243 263 280 293 302 303 300
176 177 175 176 179 176 170 167 170 169 167 167 152 102 132 179 203 196 197 208 229 37 80 112 103 117 147 152 184 175 117 150 174 132 124 126 145 195 227 220 167 108 114 146 152 167 192 269 233 168 215 187 168 175 154 147 145 171 161 131 146 156 153 201 214 203 237 276 310 298 251 202 228 270 238 235 258 289 267 252 248 248 258 272 289 295 292 293
176 176 174 174 180 184 182 174 176 176 172 164 146 153 173 197 205 197 193 191 190 73 52 84 109 127 166 58 308 198 142 154 175 121 143 164 171 191 195 199 192 136 130 162 203 167 171 250 262 275 269 153 164 231 124 113 113 249 122 103 159 185 140 137 177 172 168 336 311 265 238 215 214 274 274 259 277 287 269 275 276 260 272 303 302 293 293 296
172 171 173 176 184 190 186 176 177 179 178 157 149 177 197 203 204 200 176 150 147 133 105 79 85 128 173 76 238 221 146 108 161 145 174 194 200 195 190 194 188 179 169 162 170 159 160 263 310 335 346 95 152 225 100 119 173 165 125 172 212 170 112 113 196 75 82 235 269 226 252 289 320 289 293 300 285 288 297 302 285 270 291 314 296 291 295 289
166 167 171 181 189 192 178 166 172 175 175 161 170 187 202 201 186 165 149 129 137 135 123 134 160 146 169 171 193 204 180 113 158 171 183 192 228 197 193 213 190 186 192 156 167 199 158 183 326 31 102 341 249 146 60 38 118 124 173 210 193 119 93 110 165 12 43 239 274 283 246 287 321 274 317 355 264 274 287 286 294 297 291 287 282 276 275 280
162 163 171 185 192 193 174 159 165 163 131 160 189 199 192 164 167 155 151 133 132 131 133 161 173 143 170 185 189 188 177 164 175 184 175 186 243 204 179 195 196 184 190 138 145 210 132 144 314 33 167 298 347 110 100 8 54 123 183 180 116 139 165 87 142 166 116 231 278 300 276 266 210 229 303 311 217 238 262 273 300 292 268 273 310 287 277 286
158 158 169 183 191 192 175 158 153 139 120 176 196 209 184 117 194 232 198 138 124 124 153 176 162 118 171 178 168 175 185 179 172 179 182 187 238 221 177 181 184 177 178 138 144 193 116 139 256 321 262 293 13 127 189 213 25 45 95 101 80 129 164 154 153 164 165 193 248 308 324 266 227 211 219 235 227 220 241 264 281 277 261 210 273 278 280 285
153 148 115 174 187 186 171 155 135 137 177 192 194 203 137 103 201 276 291 147 127 128 169 180 163 145 164 167 155 169 184 176 170 182 202 187 211 246 201 186 164 163 158 114 121 164 109 144 208 295 323 225 180 215 189 167 140 100 118 160 176 65 110 162 133 118 138 157 185 273 298 264 249 206 195 222 231 216 220 242 263 280 18 155 233 255 266 274
124 121 102 166 178 173 161 148 150 174 190 201 156 159 134 118 144 285 329 46 107 82 144 150 151 150 152 154 168 170 155 153 175 187 211 201 202 229 218 182 154 147 136 110 139 170 146 149 166 159 319 201 223 252 192 173 168 161 170 184 181 154 124 154 246 234 116 139 166 178 264 267 250 202 201 219 226 222 221 230 263 284 289 237 247 253 254 261
49 110 128 175 172 167 154 145 184 148 168 201 160 140 123 100 112 136 344 43 78 54 72 105 125 146 157 160 164 164 154 157 184 189 213 217 205 211 217 165 143 150 151 143 169 174 130 110 122 156 218 216 243 275 206 197 171 156 194 195 175 172 141 152 210 221 116 134 151 117 261 273 255 192 207 225 239 250 239 223 250 279 283 269 270 266 257 252
55 100 100 165 171 168 146 145 208 157 193 231 167 69 72 90 107 132 155 59 85 94 64 81 129 144 175 166 147 163 169 170 191 199 213 220 213 220 195 155 144 153 156 146 158 160 119 115 128 206 300 307 315 335 14 45 108 180 237 194 163 187 149 143 181 172 145 187 152 102 264 271 286 289 233 241 265 280 263 235 236 268 292 293 289 293 309 305
81 92 54 145 172 178 157 174 199 194 183 77 76 87 44 75 113 122 158 170 147 137 122 133 159 138 162 151 140 171 183 181 199 207 209 202 217 248 169 167 162 160 169 182 174 173 189 164 134 118 10 345 335 339 331 291 199 203 232 164 143 127 100 97 115 107 152 215 166 152 238 255 286 323 323 317 320 317 298 260 226 242 280 290 282 290 322 341
91 68 13 55 140 177 153 157 183 175 147 102 133 156 120 69 57 119 153 139 137 147 135 149 154 100 117 133 109 161 184 173 176 199 197 196 236 343 125 188 187 175 184 175 147 160 184 175 148 155 179 203 210 213 224 211 177 201 185 138 155 142 134 152 133 108 228 230 160 172 237 250 296 344 336 334 342 333 311 310 268 246 259 268 273 283 291 300
122 109 52 33 18 21 111 85 81 124 136 145 173 173 159 165 326 343 130 129 143 124 95 104 136 94 98 145 127 162 198 191 86 173 186 192 216 307 321 208 198 193 159 120 135 142 141 171 188 191 200 208 208 208 175 127 139 200 192 162 174 174 167 161 122 164 216 203 169 218 236 248 259 275 295 297 300 267 277 305 289 253 243 244 248 264 283 286
118 134 148 143 48 82 150 136 142 146 165 174 177 180 185 188 173 8 334 206 171 130 77 55 138 147 166 165 152 174 197 193 130 165 178 179 191 296 330 149 167 247 29 130 154 128 101 201 210 201 218 226 209 196 174 141 163 195 190 176 180 180 175 171 186 215 210 173 235 236 220 244 254 212 208 261 256 242 257 255 247 244 243 253 260 276 290 289
91 118 169 74 57 175 187 170 163 158 161 178 180 187 196 196 184 187 236 11 359 162 137 127 238 190 178 169 162 164 171 181 204 192 149 132 161 110 24 45 105 292 49 124 177 123 128 211 213 190 226 241 208 171 185 178 180 193 191 186 183 179 181 190 209 222 207 189 238 235 176 221 250 223 198 230 218 211 234 226 220 240 254 261 274 291 286 281
56 66 324 348 23 182 173 142 148 156 161 169 175 189 196 202 201 198 133 99 215 261 174 198 220 195 181 160 146 158 169 178 207 207 166 134 154 127 102 107 343 325 99 126 178 154 151 215 206 174 221 246 222 176 183 188 185 201 201 189 184 185 190 199 212 222 218 215 238 246 189 229 250 227 195 227 223 214 226 177 183 226 255 272 284 276 264 261
97 120 36 39 55 108 124 134 148 162 167 169 188 195 189 202 204 199 141 159 193 197 187 201 195 171 166 147 133 170 189 168 180 197 171 143 165 177 171 179 165 68 135 147 167 201 193 222 181 145 204 255 229 180 190 196 185 207 221 192 187 195 202 211 218 222 224 230 248 262 262 259 259 199 184 234 229 205 222 215 222 243 261 270 268 258 255 257
111 107 112 111 113 139 144 149 155 162 175 185 193 181 180 205 205 194 192 210 199 190 194 192 170 133 128 154 180 205 191 119 113 156 155 143 167 186 181 177 153 143 163 167 146 158 185 210 72 109 179 253 228 169 176 147 110 236 256 218 197 199 208 217 220 218 214 217 238 250 255 260 258 179 190 234 199 171 221 227 231 246 245 241 244 248 253 255
105 45 87 109 114 194 170 152 164 174 189 192 186 174 181 199 193 180 190 253 218 210 208 180 159 140 144 194 220 205 169 131 107 123 131 113 110 109 95 112 128 138 156 158 127 141 159 160 126 137 184 256 263 139 137 106 85 261 248 223 209 204 210 218 224 229 219 206 218 229 230 248 256 180 194 231 183 182 221 219 215 231 236 240 245 248 257 263